Time,TemperatureF,DewpointF,PressureIn,WindDirection,WindDirectionDegrees,WindSpeedMPH,WindSpeedGustMPH,Humidity,HourlyPrecipIn,Conditions,Clouds,dailyrainin,SoftwareType,DateUTC
2017-04-27 00:02:00,57.1,25.2,29.69,NE,35,3.0,4.0,29,0.00,,---,0.00,VWS V15.00,2017-04-27 07:02:00,
2017-04-27 00:07:00,57.4,25.4,29.69,NE,36,0.0,4.0,29,0.00,,---,0.00,VWS V15.00,2017-04-27 07:07:00,
2017-04-27 00:12:00,57.5,26.3,29.69,NE,41,0.0,3.0,30,0.00,,---,0.00,VWS V15.00,2017-04-27 07:12:00,
2017-04-27 00:17:00,57.8,26.6,29.69,East,98,0.0,4.0,30,0.00,,---,0.00,VWS V15.00,2017-04-27 07:17:00,
2017-04-27 00:22:00,58.7,27.4,29.68,SE,126,1.0,5.0,30,0.00,,---,0.00,VWS V15.00,2017-04-27 07:22:00,
2017-04-27 00:27:00,59.0,26.8,29.68,SE,134,1.0,4.0,29,0.00,,---,0.00,VWS V15.00,2017-04-27 07:27:00,
2017-04-27 00:32:00,59.5,27.2,29.68,SE,136,2.0,3.0,29,0.00,,---,0.00,VWS V15.00,2017-04-27 07:32:00,
2017-04-27 00:37:00,59.5,27.2,29.68,SE,136,0.0,2.0,29,0.00,,---,0.00,VWS V15.00,2017-04-27 07:37:00,
2017-04-27 00:42:00,59.0,26.8,29.68,SE,136,3.0,3.0,29,0.00,,---,0.00,VWS V15.00,2017-04-27 07:42:00,
2017-04-27 00:47:00,58.3,27.0,29.68,SE,134,5.0,5.0,30,0.00,,---,0.00,VWS V15.00,2017-04-27 07:47:00,
2017-04-27 00:52:00,58.7,27.4,29.68,SE,134,1.0,5.0,30,0.00,,---,0.00,VWS V15.00,2017-04-27 07:52:00,
2017-04-27 00:57:00,58.4,27.1,29.67,SE,134,0.0,2.0,30,0.00,,---,0.00,VWS V15.00,2017-04-27 07:57:00,
2017-04-27 01:02:00,59.9,30.0,29.67,North,360,4.0,7.0,32,0.00,,---,0.00,VWS V15.00,2017-04-27 08:02:00,
2017-04-27 01:07:00,62.8,31.7,29.67,SSW,213,6.0,11.0,31,0.00,,---,0.00,VWS V15.00,2017-04-27 08:07:00,
2017-04-27 01:12:00,63.7,31.7,29.66,SSW,198,5.0,10.0,30,0.00,,---,0.00,VWS V15.00,2017-04-27 08:12:00,
2017-04-27 01:17:00,63.3,31.4,29.66,SSW,206,4.0,8.0,30,0.00,,---,0.00,VWS V15.00,2017-04-27 08:17:00,
2017-04-27 01:22:00,62.1,31.1,29.65,South,183,1.0,8.0,31,0.00,,---,0.00,VWS V15.00,2017-04-27 08:22:00,
2017-04-27 01:27:00,61.5,32.2,29.65,South,190,5.0,9.0,33,0.00,,---,0.00,VWS V15.00,2017-04-27 08:27:00,
2017-04-27 01:32:00,61.4,32.8,29.65,SSW,192,4.0,9.0,34,0.00,,---,0.00,VWS V15.00,2017-04-27 08:32:00,
2017-04-27 01:37:00,61.4,32.8,29.65,SSW,196,0.0,12.0,34,0.00,,---,0.00,VWS V15.00,2017-04-27 08:37:00,
2017-04-27 01:42:00,61.9,34.0,29.65,SW,216,6.0,12.0,35,0.00,,---,0.00,VWS V15.00,2017-04-27 08:42:00,
2017-04-27 01:47:00,62.7,34.0,29.65,North,360,4.0,10.0,34,0.00,,---,0.00,VWS V15.00,2017-04-27 08:47:00,
2017-04-27 01:52:00,62.9,34.1,29.65,SSW,205,3.0,9.0,34,0.00,,---,0.00,VWS V15.00,2017-04-27 08:52:00,
2017-04-27 01:57:00,62.7,34.0,29.65,North,360,3.0,11.0,34,0.00,,---,0.00,VWS V15.00,2017-04-27 08:57:00,
2017-04-27 02:02:00,62.4,34.4,29.66,SSW,207,5.0,7.0,35,0.00,,---,0.00,VWS V15.00,2017-04-27 09:02:00,
2017-04-27 02:07:00,62.2,34.2,29.65,SSW,211,10.0,10.0,35,0.00,,---,0.00,VWS V15.00,2017-04-27 09:07:00,
2017-04-27 02:12:00,62.2,34.2,29.66,SSW,200,4.0,10.0,35,0.00,,---,0.00,VWS V15.00,2017-04-27 09:12:00,
2017-04-27 02:17:00,61.9,34.0,29.66,SSW,194,6.0,7.0,35,0.00,,---,0.00,VWS V15.00,2017-04-27 09:17:00,
2017-04-27 02:22:00,61.7,34.5,29.67,SSW,196,3.0,6.0,36,0.00,,---,0.00,VWS V15.00,2017-04-27 09:22:00,
2017-04-27 02:27:00,61.4,34.2,29.67,SSW,199,0.0,5.0,36,0.00,,---,0.00,VWS V15.00,2017-04-27 09:27:00,
2017-04-27 02:32:00,61.6,34.4,29.67,SSW,195,2.0,9.0,36,0.00,,---,0.00,VWS V15.00,2017-04-27 09:32:00,
2017-04-27 02:37:00,61.9,34.7,29.67,SSW,200,0.0,7.0,36,0.00,,---,0.00,VWS V15.00,2017-04-27 09:37:00,
2017-04-27 02:42:00,61.7,34.5,29.67,SSW,200,0.0,0.0,36,0.00,,---,0.00,VWS V15.00,2017-04-27 09:42:00,
2017-04-27 02:47:00,61.2,34.1,29.67,SSW,200,0.0,0.0,36,0.00,,---,0.00,VWS V15.00,2017-04-27 09:47:00,
2017-04-27 02:52:00,60.1,33.8,29.66,SSW,200,0.0,0.0,37,0.00,,---,0.00,VWS V15.00,2017-04-27 09:52:00,
2017-04-27 02:57:00,59.0,33.5,29.67,SSW,201,0.0,0.0,38,0.00,,---,0.00,VWS V15.00,2017-04-27 09:57:00,
2017-04-27 03:02:00,58.0,33.2,29.66,SSW,200,0.0,0.0,39,0.00,,---,0.00,VWS V15.00,2017-04-27 10:02:00,
2017-04-27 03:07:00,56.8,32.8,29.65,SSW,200,1.0,4.0,40,0.00,,---,0.00,VWS V15.00,2017-04-27 10:07:00,
2017-04-27 03:12:00,56.7,33.3,29.66,SSW,200,0.0,3.0,41,0.00,,---,0.00,VWS V15.00,2017-04-27 10:12:00,
2017-04-27 03:17:00,56.9,33.5,29.65,SSW,200,0.0,4.0,41,0.00,,---,0.00,VWS V15.00,2017-04-27 10:17:00,
2017-04-27 03:22:00,57.4,33.9,29.66,SSW,200,1.0,2.0,41,0.00,,---,0.00,VWS V15.00,2017-04-27 10:22:00,
2017-04-27 03:27:00,57.8,34.3,29.66,SSW,200,0.0,2.0,41,0.00,,---,0.00,VWS V15.00,2017-04-27 10:27:00,
2017-04-27 03:32:00,58.2,34.6,29.65,SSW,200,0.0,3.0,41,0.00,,---,0.00,VWS V15.00,2017-04-27 10:32:00,
2017-04-27 03:37:00,58.2,34.6,29.65,SSW,200,0.0,3.0,41,0.00,,---,0.00,VWS V15.00,2017-04-27 10:37:00,
2017-04-27 03:42:00,58.4,34.8,29.64,SSW,200,0.0,3.0,41,0.00,,---,0.00,VWS V15.00,2017-04-27 10:42:00,
2017-04-27 03:47:00,59.5,35.2,29.65,SW,215,0.0,5.0,40,0.00,,---,0.00,VWS V15.00,2017-04-27 10:47:00,
2017-04-27 03:52:00,59.8,35.5,29.65,SW,215,0.0,4.0,40,0.00,,---,0.00,VWS V15.00,2017-04-27 10:52:00,
2017-04-27 03:57:00,59.6,35.3,29.64,SW,214,2.0,4.0,40,0.00,,---,0.00,VWS V15.00,2017-04-27 10:57:00,
2017-04-27 04:02:00,59.5,35.8,29.65,SW,215,0.0,5.0,41,0.00,,---,0.00,VWS V15.00,2017-04-27 11:02:00,
2017-04-27 04:07:00,59.5,35.8,29.65,SW,215,4.0,4.0,41,0.00,,---,0.00,VWS V15.00,2017-04-27 11:07:00,
2017-04-27 04:12:00,59.6,35.9,29.65,SW,215,0.0,4.0,41,0.00,,---,0.00,VWS V15.00,2017-04-27 11:12:00,
2017-04-27 04:17:00,59.5,35.8,29.65,SW,214,0.0,0.0,41,0.00,,---,0.00,VWS V15.00,2017-04-27 11:17:00,
2017-04-27 04:22:00,59.0,35.3,29.65,SW,215,0.0,0.0,41,0.00,,---,0.00,VWS V15.00,2017-04-27 11:22:00,